Time,TemperatureF,DewpointF,PressureIn,WindDirection,WindDirectionDegrees,WindSpeedMPH,WindSpeedGustMPH,Humidity,HourlyPrecipIn,Conditions,Clouds,dailyrainin,SoftwareType,DateUTC
2013-08-06 00:03:00,60.3,54.8,29.85,West,264,0.0,5.0,82,0.00,,CLR,0.00,VWS V14.00,2013-08-06 05:03:00,
2013-08-06 00:08:00,60.3,54.8,29.84,WSW,256,5.0,7.0,82,0.00,,CLR,0.00,VWS V14.00,2013-08-06 05:08:00,
2013-08-06 00:13:00,60.7,55.2,29.83,WSW,251,0.0,5.0,82,0.00,,CLR,0.00,VWS V14.00,2013-08-06 05:13:00,
2013-08-06 00:18:00,60.9,55.0,29.83,SW,236,0.0,7.0,81,0.00,,CLR,0.00,VWS V14.00,2013-08-06 05:18:00,
2013-08-06 00:23:00,61.0,55.1,29.82,SW,235,0.0,6.0,81,0.00,,CLR,0.00,VWS V14.00,2013-08-06 05:23:00,
2013-08-06 00:28:00,61.1,54.9,29.82,SW,234,0.0,6.0,80,0.00,,CLR,0.00,VWS V14.00,2013-08-06 05:28:00,
2013-08-06 00:34:00,61.0,54.8,29.81,SW,233,0.0,3.0,80,0.00,,CLR,0.00,VWS V14.00,2013-08-06 05:34:00,
2013-08-06 00:39:00,60.8,54.6,29.81,SW,225,0.0,6.0,80,0.00,,CLR,0.00,VWS V14.00,2013-08-06 05:39:00,
2013-08-06 00:44:00,60.6,54.4,29.81,SW,225,0.0,0.0,80,0.00,,CLR,0.00,VWS V14.00,2013-08-06 05:44:00,
2013-08-06 00:49:00,60.2,54.0,29.81,SW,225,0.0,0.0,80,0.00,,CLR,0.00,VWS V14.00,2013-08-06 05:49:00,
2013-08-06 00:54:00,59.9,54.1,29.81,SW,225,0.0,0.0,81,0.00,,CLR,0.00,VWS V14.00,2013-08-06 05:54:00,
2013-08-06 00:59:00,59.6,53.8,29.81,South,177,4.0,7.0,81,0.00,,CLR,0.00,VWS V14.00,2013-08-06 05:59:00,
2013-08-06 01:04:00,59.3,53.5,29.81,South,176,0.0,8.0,81,0.00,,CLR,0.00,VWS V14.00,2013-08-06 06:04:00,
2013-08-06 01:09:00,59.2,53.7,29.81,South,176,0.0,8.0,82,0.00,,CLR,0.00,VWS V14.00,2013-08-06 06:09:00,
2013-08-06 01:14:00,59.2,53.7,29.81,South,173,0.0,5.0,82,0.00,,CLR,0.00,VWS V14.00,2013-08-06 06:14:00,
2013-08-06 01:19:00,59.1,53.6,29.81,South,170,0.0,7.0,82,0.00,,CLR,0.00,VWS V14.00,2013-08-06 06:19:00,
2013-08-06 01:24:00,58.9,53.4,29.80,South,169,0.0,7.0,82,0.00,,CLR,0.00,VWS V14.00,2013-08-06 06:24:00,
2013-08-06 01:29:00,58.7,53.2,29.80,South,174,0.0,9.0,82,0.00,,CLR,0.00,VWS V14.00,2013-08-06 06:29:00,
2013-08-06 01:34:00,58.6,53.1,29.80,South,171,5.0,7.0,82,0.00,,CLR,0.00,VWS V14.00,2013-08-06 06:34:00,
2013-08-06 01:39:00,58.4,52.9,29.80,South,171,0.0,7.0,82,0.00,,CLR,0.00,VWS V14.00,2013-08-06 06:39:00,
2013-08-06 01:44:00,58.2,52.7,29.80,South,171,0.0,5.0,82,0.00,,CLR,0.00,VWS V14.00,2013-08-06 06:44:00,
2013-08-06 01:49:00,58.1,53.0,29.81,South,172,0.0,6.0,83,0.00,,CLR,0.00,VWS V14.00,2013-08-06 06:49:00,
2013-08-06 01:54:00,57.9,52.8,29.81,South,172,0.0,9.0,83,0.00,,CLR,0.00,VWS V14.00,2013-08-06 06:54:00,
2013-08-06 01:59:00,57.7,52.6,29.81,South,173,0.0,9.0,83,0.00,,CLR,0.00,VWS V14.00,2013-08-06 06:59:00,
2013-08-06 02:04:00,57.6,52.5,29.81,South,173,0.0,2.0,83,0.00,,CLR,0.00,VWS V14.00,2013-08-06 07:04:00,
2013-08-06 02:09:00,57.5,52.4,29.81,South,173,0.0,3.0,83,0.00,,CLR,0.00,VWS V14.00,2013-08-06 07:09:00,
2013-08-06 02:14:00,57.4,52.6,29.81,South,172,0.0,6.0,84,0.00,,CLR,0.00,VWS V14.00,2013-08-06 07:14:00,
2013-08-06 02:19:00,57.4,52.6,29.81,South,172,0.0,6.0,84,0.00,,CLR,0.00,VWS V14.00,2013-08-06 07:19:00,
2013-08-06 02:24:00,57.4,52.6,29.80,South,172,0.0,4.0,84,0.00,,CLR,0.00,VWS V14.00,2013-08-06 07:24:00,
2013-08-06 02:29:00,57.5,52.7,29.80,South,169,0.0,6.0,84,0.00,,CLR,0.00,VWS V14.00,2013-08-06 07:29:00,
2013-08-06 02:34:00,57.3,52.5,29.79,South,169,1.0,1.0,84,0.00,,CLR,0.00,VWS V14.00,2013-08-06 07:34:00,
2013-08-06 02:39:00,57.2,52.4,29.79,South,169,0.0,5.0,84,0.00,,CLR,0.00,VWS V14.00,2013-08-06 07:39:00,
2013-08-06 02:44:00,57.2,52.4,29.79,South,169,0.0,1.0,84,0.00,,CLR,0.00,VWS V14.00,2013-08-06 07:44:00,
2013-08-06 02:49:00,57.1,52.3,29.79,South,169,0.0,1.0,84,0.00,,CLR,0.00,VWS V14.00,2013-08-06 07:49:00,
2013-08-06 02:54:00,57.0,52.2,29.79,South,169,0.0,0.0,84,0.00,,CLR,0.00,VWS V14.00,2013-08-06 07:54:00,
2013-08-06 02:59:00,56.9,52.4,29.79,South,169,0.0,3.0,85,0.00,,CLR,0.00,VWS V14.00,2013-08-06 07:59:00,
2013-08-06 03:04:00,56.7,51.9,29.79,South,169,1.0,4.0,84,0.00,,CLR,0.00,VWS V14.00,2013-08-06 08:04:00,
2013-08-06 03:09:00,56.6,52.2,29.78,South,169,0.0,4.0,85,0.00,,CLR,0.00,VWS V14.00,2013-08-06 08:09:00,
2013-08-06 03:14:00,56.5,52.0,29.78,South,169,2.0,2.0,85,0.00,,CLR,0.00,VWS V14.00,2013-08-06 08:14:00,
2013-08-06 03:19:00,56.5,52.0,29.78,South,169,0.0,5.0,85,0.00,,CLR,0.00,VWS V14.00,2013-08-06 08:19:00,
2013-08-06 03:24:00,56.6,52.5,29.77,South,169,0.0,2.0,86,0.00,,CLR,0.00,VWS V14.00,2013-08-06 08:24:00,
2013-08-06 03:29:00,56.6,52.5,29.77,South,169,2.0,4.0,86,0.00,,CLR,0.00,VWS V14.00,2013-08-06 08:29:00,
2013-08-06 03:34:00,56.7,52.2,29.77,South,169,0.0,0.0,85,0.00,,CLR,0.00,VWS V14.00,2013-08-06 08:34:00,
2013-08-06 03:39:00,56.8,52.3,29.76,South,169,0.0,3.0,85,0.00,,CLR,0.00,VWS V14.00,2013-08-06 08:39:00,
2013-08-06 03:44:00,56.8,52.7,29.77,South,169,0.0,3.0,86,0.00,,CLR,0.00,VWS V14.00,2013-08-06 08:44:00,
2013-08-06 03:49:00,56.9,52.8,29.76,South,169,0.0,3.0,86,0.00,,CLR,0.00,VWS V14.00,2013-08-06 08:49:00,
2013-08-06 03:54:00,56.9,52.4,29.77,South,169,0.0,2.0,85,0.00,,CLR,0.00,VWS V14.00,2013-08-06 08:54:00,
2013-08-06 03:59:00,56.9,52.4,29.76,South,169,0.0,5.0,85,0.00,,CLR,0.00,VWS V14.00,2013-08-06 08:59:00,
2013-08-06 04:04:00,57.0,52.5,29.75,South,169,0.0,1.0,85,0.00,,CLR,0.00,VWS V14.00,2013-08-06 09:04:00,
2013-08-06 04:09:00,57.0,52.9,29.74,South,169,0.0,1.0,86,0.00,,CLR,0.00,VWS V14.00,2013-08-06 09:09:00,
2013-08-06 04:14:00,57.2,52.7,29.74,South,169,0.0,0.0,85,0.00,,CLR,0.00,VWS V14.00,2013-08-06 09:14:00,
2013-08-06 04:19:00,57.2,52.7,29.75,South,169,0.0,1.0,85,0.00,,CLR,0.00,VWS V14.00,2013-08-06 09:19:00,
2013-08-06 04:24:00,57.2,52.7,29.75,SSE,165,0.0,3.0,85,0.00,,CLR,0.00,VWS V14.00,2013-08-06 09:24:00,
2013-08-06 04:29:00,57.2,52.7,29.75,SSE,165,0.0,3.0,85,0.00,,CLR,0.00,VWS V14.00,2013-08-06 09:29:00,
2013-08-06 04:34:00,57.1,52.6,29.75,SSE,165,4.0,4.0,85,0.00,,CLR,0.00,VWS V14.00,2013-08-06 09:34:00,
2013-08-06 04:39:00,57.0,52.5,29.75,SSE,153,0.0,8.0,85,0.00,,CLR,0.00,VWS V14.00,2013-08-06 09:39:00,
2013-08-06 04:44:00,56.8,52.0,29.75,SSE,154,4.0,9.0,84,0.00,,CLR,0.00,VWS V14.00,2013-08-06 09:44:00,
2013-08-06 04:49:00,56.6,52.2,29.74,SSE,159,6.0,9.0,85,0.00,,CLR,0.00,VWS V14.00,2013-08-06 09:49:00,
2013-08-06 04:54:00,56.5,52.0,29.75,SSE,164,0.0,8.0,85,0.00,,CLR,0.00,VWS V14.00,2013-08-06 09:54:00,
2013-08-06 04:59:00,56.5,52.0,29.74,SSE,166,6.0,8.0,85,0.00,,CLR,0.00,VWS V14.00,2013-08-06 09:59:00,
2013-08-06 05:04:00,56.4,52.0,29.74,SSE,166,3.0,8.0,85,0.00,,CLR,0.00,VWS V14.00,2013-08-06 10:04:00,
2013-08-06 05:09:00,56.3,51.9,29.75,SSE,167,0.0,8.0,85,0.00,,CLR,0.00,VWS V14.00,2013-08-06 10:09:00,
2013-08-06 05:14:00,56.3,51.9,29.75,SSE,167,0.0,7.0,85,0.00,,CLR,0.00,VWS V14.00,2013-08-06 10:14:00,
2013-08-06 05:19:00,56.4,52.3,29.75,South,169,3.0,7.0,86,0.00,,CLR,0.00,VWS V14.00,2013-08-06 10:19:00,
2013-08-06 05:24:00,56.5,52.0,29.75,South,170,4.0,7.0,85,0.00,,CLR,0.00,VWS V14.00,2013-08-06 10:24:00,
2013-08-06 05:29:00,56.4,52.0,29.74,South,169,0.0,8.0,85,0.00,,CLR,0.00,VWS V14.00,2013-08-06 10:29:00,
2013-08-06 05:34:00,56.5,52.0,29.74,SSE,167,0.0,6.0,85,0.00,,CLR,0.00,VWS V14.00,2013-08-06 10:34:00,
2013-08-06 05:39:00,56.6,52.2,29.74,SSE,167,0.0,6.0,85,0.00,,CLR,0.00,VWS V14.00,2013-08-06 10:39:00,
2013-08-06 05:44:00,56.7,52.2,29.74,SSE,167,0.0,0.0,85,0.00,,CLR,0.00,VWS V14.00,2013-08-06 10:44:00,
2013-08-06 05:49:00,56.8,52.3,29.75,SSE,167,3.0,4.0,85,0.00,,CLR,0.00,VWS V14.00,2013-08-06 10:49:00,
2013-08-06 05:54:00,56.8,52.3,29.75,SSE,168,0.0,7.0,85,0.00,,CLR,0.00,VWS V14.00,2013-08-06 10:54:00,
2013-08-06 05:59:00,56.7,52.2,29.75,SSE,167,0.0,8.0,85,0.00,,CLR,0.00,VWS V14.00,2013-08-06 10:59:00,
2013-08-06 06:04:00,56.6,52.2,29.75,SSE,165,0.0,9.0,85,0.00,,CLR,0.00,VWS V14.00,2013-08-06 11:04:00,
2013-08-06 06:09:00,56.6,52.2,29.76,SSE,147,0.0,9.0,85,0.00,,CLR,0.00,VWS V14.00,2013-08-06 11:09:00,
2013-08-06 06:14:00,56.7,52.2,29.76,SSE,157,0.0,8.0,85,0.00,,CLR,0.00,VWS V14.00,2013-08-06 11:14:00,
2013-08-06 06:19:00,56.7,52.2,29.77,SSE,157,0.0,8.0,85,0.00,,CLR,0.00,VWS V14.00,2013-08-06 11:19:00,
2013-08-06 06:24:00,56.8,52.7,29.77,SSE,157,0.0,0.0,86,0.00,,CLR,0.00,VWS V14.00,2013-08-06 11:24:00,
2013-08-06 06:29:00,56.9,52.8,29.77,SSE,157,0.0,1.0,86,0.00,,CLR,0.00,VWS V14.00,2013-08-06 11:29:00,
2013-08-06 06:35:00,57.0,52.9,29.76,SSE,157,0.0,0.0,86,0.00,,CLR,0.00,VWS V14.00,2013-08-06 11:35:00,
2013-08-06 06:40:00,57.1,53.0,29.76,SSE,157,0.0,0.0,86,0.00,,CLR,0.00,VWS V14.00,2013-08-06 11:40:00,
2013-08-06 06:45:00,57.2,53.1,29.76,SSE,157,0.0,0.0,86,0.00,,CLR,0.00,VWS V14.00,2013-08-06 11:45:00,
2013-08-06 06:50:00,57.3,53.2,29.76,SSE,157,0.0,0.0,86,0.00,,CLR,0.00,VWS V14.00,2013-08-06 11:50:00,
2013-08-06 06:55:00,57.5,53.3,29.77,SSE,157,0.0,0.0,86,0.00,,CLR,0.00,VWS V14.00,2013-08-06 11:55:00,
2013-08-06 07:00:00,57.7,53.5,29.76,SSE,157,0.0,0.0,86,0.00,,CLR,0.00,VWS V14.00,2013-08-06 12:00:00,
2013-08-06 07:05:00,57.8,54.0,29.75,SSE,157,0.0,0.0,87,0.00,,OVC100,0.00,VWS V14.00,2013-08-06 12:05:00,
2013-08-06 07:10:00,57.9,53.7,29.76,SSE,157,0.0,0.0,86,0.01,,OVC100,0.01,VWS V14.00,2013-08-06 12:10:00,
2013-08-06 07:15:00,58.0,53.8,29.76,SSE,157,0.0,0.0,86,0.02,,OVC100,0.02,VWS V14.00,2013-08-06 12:15:00,
2013-08-06 07:20:00,58.1,54.3,29.75,SSE,157,0.0,0.0,87,0.02,,OVC100,0.02,VWS V14.00,2013-08-06 12:20:00,
2013-08-06 07:25:00,58.1,54.6,29.76,SSE,157,0.0,0.0,88,0.02,,OVC100,0.02,VWS V14.00,2013-08-06 12:25:00,
2013-08-06 07:30:00,58.2,55.0,29.77,SSE,157,0.0,0.0,89,0.03,,OVC100,0.03,VWS V14.00,2013-08-06 12:30:00,
2013-08-06 07:35:00,58.3,55.1,29.77,SSE,157,0.0,0.0,89,0.04,,OVC100,0.04,VWS V14.00,2013-08-06 12:35:00,
2013-08-06 07:40:00,58.3,55.1,29.78,SSE,157,0.0,0.0,89,0.05,,OVC100,0.05,VWS V14.00,2013-08-06 12:40:00,
2013-08-06 07:45:00,58.4,55.2,29.78,SSE,157,0.0,0.0,89,0.06,,OVC100,0.06,VWS V14.00,2013-08-06 12:45:00,
2013-08-06 07:50:00,58.5,55.6,29.79,SSE,157,0.0,0.0,90,0.07,,OVC100,0.07,VWS V14.00,2013-08-06 12:50:00,
2013-08-06 07:55:00,58.6,55.7,29.77,SSE,157,0.0,0.0,90,0.08,,OVC100,0.08,VWS V14.00,2013-08-06 12:55:00,
2013-08-06 08:00:00,58.7,55.8,29.76,SSE,157,0.0,0.0,90,0.09,,OVC100,0.09,VWS V14.00,2013-08-06 13:00:00,
2013-08-06 08:05:00,58.8,55.9,29.75,SSE,157,0.0,3.0,90,0.09,,RA,0.09,VWS V14.00,2013-08-06 13:05:00,
2013-08-06 08:10:00,58.8,55.9,29.76,SSE,157,0.0,0.0,90,0.09,,-RA,0.10,VWS V14.00,2013-08-06 13:10:00,
2013-08-06 08:15:00,58.9,56.0,29.75,SSE,157,0.0,0.0,90,0.09,,-RA,0.10,VWS V14.00,2013-08-06 13:15:00,
2013-08-06 08:20:00,58.9,56.0,29.76,SSE,157,0.0,0.0,90,0.08,,-RA,0.10,VWS V14.00,2013-08-06 13:20:00,
2013-08-06 08:25:00,59.0,56.1,29.75,SSE,157,0.0,0.0,90,0.08,,-RA,0.10,VWS V14.00,2013-08-06 13:25:00,
2013-08-06 08:30:00,59.0,56.4,29.74,SSE,157,3.0,4.0,91,0.07,,-RA,0.10,VWS V14.00,2013-08-06 13:30:00,
2013-08-06 08:35:00,59.1,56.5,29.75,SSE,157,0.0,4.0,91,0.07,,-RA,0.10,VWS V14.00,2013-08-06 13:35:00,
2013-08-06 08:40:00,59.2,56.6,29.75,SSE,157,0.0,0.0,91,0.05,,-RA,0.10,VWS V14.00,2013-08-06 13:40:00,
2013-08-06 08:45:00,59.3,56.7,29.75,SSE,157,0.0,2.0,91,0.05,,-RA,0.10,VWS V14.00,2013-08-06 13:45:00,
2013-08-06 08:50:00,59.3,57.0,29.75,SSE,157,0.0,0.0,92,0.03,,-RA,0.10,VWS V14.00,2013-08-06 13:50:00,
2013-08-06 08:55:00,59.4,57.1,29.74,SSE,151,3.0,8.0,92,0.03,,-RA,0.10,VWS V14.00,2013-08-06 13:55:00,
2013-08-06 09:00:00,59.6,57.3,29.74,SSE,151,0.0,0.0,92,0.01,,-RA,0.10,VWS V14.00,2013-08-06 14:00:00,
2013-08-06 09:05:00,59.8,57.5,29.74,SSE,151,0.0,0.0,92,0.01,,OVC080,0.10,VWS V14.00,2013-08-06 14:05:00,
2013-08-06 09:10:00,60.1,57.8,29.73,SSE,151,0.0,0.0,92,0.00,,OVC080,0.10,VWS V14.00,2013-08-06 14:10:00,
2013-08-06 09:15:00,60.2,57.9,29.73,SSE,151,0.0,6.0,92,0.00,,OVC080,0.10,VWS V14.00,2013-08-06 14:15:00,
2013-08-06 09:20:00,60.4,58.1,29.73,SSE,151,0.0,1.0,92,0.00,,OVC080,0.10,VWS V14.00,2013-08-06 14:20:00,
2013-08-06 09:25:00,60.8,58.5,29.72,SSE,151,3.0,6.0,92,0.00,,OVC080,0.10,VWS V14.00,2013-08-06 14:25:00,
2013-08-06 09:30:00,61.2,58.9,29.72,SSE,151,0.0,0.0,92,0.00,,OVC080,0.10,VWS V14.00,2013-08-06 14:30:00,
2013-08-06 09:35:00,61.5,59.5,29.72,SSE,151,0.0,1.0,93,0.00,,OVC080,0.10,VWS V14.00,2013-08-06 14:35:00,
2013-08-06 09:40:00,61.9,59.5,29.72,SSE,150,2.0,4.0,92,0.00,,OVC080,0.10,VWS V14.00,2013-08-06 14:40:00,
2013-08-06 09:45:00,62.1,59.8,29.72,SSE,150,0.0,8.0,92,0.00,,OVC080,0.10,VWS V14.00,2013-08-06 14:45:00,
2013-08-06 09:50:00,62.4,60.0,29.72,SSE,149,0.0,0.0,92,0.00,,OVC080,0.10,VWS V14.00,2013-08-06 14:50:00,
2013-08-06 09:55:00,62.9,60.5,29.72,SSE,149,0.0,0.0,92,0.00,,OVC080,0.10,VWS V14.00,2013-08-06 14:55:00,
2013-08-06 10:00:00,63.4,61.0,29.72,SSE,149,0.0,0.0,92,0.00,,-RA,0.10,VWS V14.00,2013-08-06 15:00:00,
2013-08-06 10:05:00,63.7,61.3,29.73,SSE,149,0.0,1.0,92,0.00,,-RA,0.10,VWS V14.00,2013-08-06 15:05:00,
2013-08-06 10:10:00,64.6,62.2,29.73,SSE,149,0.0,0.0,92,0.00,,-RA,0.10,VWS V14.00,2013-08-06 15:10:00,
2013-08-06 10:15:00,65.1,62.4,29.73,SSE,150,0.0,0.0,91,0.00,,-RA,0.10,VWS V14.00,2013-08-06 15:15:00,
2013-08-06 10:20:00,65.9,63.2,29.73,SSE,150,0.0,0.0,91,0.00,,-RA,0.10,VWS V14.00,2013-08-06 15:20:00,
2013-08-06 10:26:00,66.5,63.2,29.73,SSE,150,0.0,0.0,89,0.00,,-RA,0.10,VWS V14.00,2013-08-06 15:26:00,
2013-08-06 10:31:00,67.0,63.3,29.73,SSE,150,0.0,0.0,88,0.00,,-RA,0.10,VWS V14.00,2013-08-06 15:31:00,
2013-08-06 10:36:00,67.6,63.6,29.73,SE,145,0.0,0.0,87,0.00,,-RA,0.10,VWS V14.00,2013-08-06 15:36:00,
2013-08-06 10:41:00,68.1,63.4,29.73,SE,146,0.0,6.0,85,0.00,,-RA,0.10,VWS V14.00,2013-08-06 15:41:00,
2013-08-06 10:46:00,68.6,63.2,29.73,SE,145,3.0,6.0,83,0.00,,-RA,0.10,VWS V14.00,2013-08-06 15:46:00,
2013-08-06 10:51:00,69.0,63.6,29.73,SE,145,0.0,0.0,83,0.00,,-RA,0.10,VWS V14.00,2013-08-06 15:51:00,
2013-08-06 10:56:00,69.6,63.2,29.73,SE,145,0.0,0.0,80,0.00,,-RA,0.10,VWS V14.00,2013-08-06 15:56:00,
2013-08-06 11:01:00,70.1,62.6,29.73,SE,145,0.0,0.0,77,0.00,,FEW065,0.10,VWS V14.00,2013-08-06 16:01:00,
2013-08-06 11:06:00,70.6,62.7,29.73,SE,145,0.0,3.0,76,0.00,,FEW065,0.10,VWS V14.00,2013-08-06 16:06:00,
2013-08-06 11:11:00,71.7,63.4,29.72,SE,145,0.0,2.0,75,0.00,,FEW065,0.10,VWS V14.00,2013-08-06 16:11:00,
2013-08-06 11:16:00,72.5,63.8,29.73,South,178,0.0,5.0,74,0.00,,FEW065,0.10,VWS V14.00,2013-08-06 16:16:00,
2013-08-06 11:21:00,73.3,63.7,29.72,SE,140,0.0,3.0,72,0.00,,FEW065,0.10,VWS V14.00,2013-08-06 16:21:00,
2013-08-06 11:26:00,73.7,63.7,29.72,SE,134,0.0,9.0,71,0.00,,FEW065,0.10,VWS V14.00,2013-08-06 16:26:00,
2013-08-06 11:31:00,74.0,63.2,29.72,SE,134,0.0,0.0,69,0.00,,FEW065,0.10,VWS V14.00,2013-08-06 16:31:00,
2013-08-06 11:36:00,74.1,62.9,29.72,SE,135,1.0,5.0,68,0.00,,FEW065,0.10,VWS V14.00,2013-08-06 16:36:00,
2013-08-06 11:41:00,74.3,63.9,29.72,SE,139,0.0,8.0,70,0.00,,FEW065,0.10,VWS V14.00,2013-08-06 16:41:00,
2013-08-06 11:46:00,74.2,63.4,29.72,SE,139,0.0,8.0,69,0.00,,FEW065,0.10,VWS V14.00,2013-08-06 16:46:00,
2013-08-06 11:51:00,74.6,64.6,29.72,SE,139,2.0,2.0,71,0.00,,FEW065,0.10,VWS V14.00,2013-08-06 16:51:00,
2013-08-06 11:56:00,74.7,63.9,29.72,SSE,147,0.0,7.0,69,0.00,,FEW065,0.10,VWS V14.00,2013-08-06 16:56:00,
2013-08-06 12:01:00,75.0,64.6,29.72,SSE,149,0.0,4.0,70,0.00,,CLR,0.10,VWS V14.00,2013-08-06 17:01:00,
2013-08-06 12:06:00,75.5,65.4,29.73,SSE,149,0.0,4.0,71,0.00,,CLR,0.10,VWS V14.00,2013-08-06 17:06:00,
2013-08-06 12:11:00,75.5,64.2,29.73,SSE,149,0.0,0.0,68,0.00,,CLR,0.10,VWS V14.00,2013-08-06 17:11:00,
2013-08-06 12:16:00,75.9,65.0,29.73,SSE,149,0.0,0.0,69,0.00,,CLR,0.10,VWS V14.00,2013-08-06 17:16:00,
2013-08-06 12:21:00,76.2,64.9,29.73,SE,145,2.0,4.0,68,0.00,,CLR,0.10,VWS V14.00,2013-08-06 17:21:00,
2013-08-06 12:26:00,76.4,65.1,29.73,SE,144,0.0,4.0,68,0.00,,CLR,0.10,VWS V14.00,2013-08-06 17:26:00,
2013-08-06 12:27:00,76.5,65.2,29.72,SE,144,0.0,4.0,68,0.00,,CLR,0.10,VWS V14.00,2013-08-06 17:27:00,
2013-08-06 12:32:00,76.2,64.4,29.72,SE,145,0.0,0.0,67,0.00,,CLR,0.10,VWS V14.00,2013-08-06 17:32:00,
2013-08-06 12:37:00,75.5,64.2,29.72,SE,145,0.0,3.0,68,0.00,,CLR,0.10,VWS V14.00,2013-08-06 17:37:00,
2013-08-06 12:42:00,75.4,64.5,29.72,SE,145,1.0,3.0,69,0.00,,CLR,0.10,VWS V14.00,2013-08-06 17:42:00,
2013-08-06 12:47:00,75.5,62.9,29.72,SE,146,0.0,3.0,65,0.00,,CLR,0.10,VWS V14.00,2013-08-06 17:47:00,
2013-08-06 12:52:00,75.5,61.6,29.72,SE,146,0.0,0.0,62,0.00,,CLR,0.10,VWS V14.00,2013-08-06 17:52:00,
2013-08-06 12:57:00,75.5,62.5,29.73,SE,146,0.0,1.0,64,0.00,,CLR,0.10,VWS V14.00,2013-08-06 17:57:00,
2013-08-06 13:02:00,75.6,63.5,29.72,SE,145,0.0,3.0,66,0.00,,OVC048,0.10,VWS V14.00,2013-08-06 18:02:00,
2013-08-06 13:07:00,75.4,63.3,29.72,SE,145,0.0,3.0,66,0.00,,OVC048,0.10,VWS V14.00,2013-08-06 18:07:00,
2013-08-06 13:12:00,75.3,63.2,29.73,SE,145,0.0,0.0,66,0.00,,OVC048,0.10,VWS V14.00,2013-08-06 18:12:00,
2013-08-06 13:17:00,75.2,63.1,29.73,SE,143,0.0,0.0,66,0.00,,OVC048,0.10,VWS V14.00,2013-08-06 18:17:00,
2013-08-06 13:22:00,75.1,63.4,29.73,SE,143,0.0,0.0,67,0.00,,OVC048,0.10,VWS V14.00,2013-08-06 18:22:00,
2013-08-06 13:27:00,74.9,62.8,29.73,ESE,117,4.0,5.0,66,0.00,,OVC048,0.10,VWS V14.00,2013-08-06 18:27:00,
2013-08-06 13:32:00,74.8,62.3,29.73,ESE,103,1.0,5.0,65,0.00,,OVC048,0.10,VWS V14.00,2013-08-06 18:32:00,
2013-08-06 13:37:00,74.6,62.9,29.73,North,356,6.0,8.0,67,0.00,,OVC048,0.10,VWS V14.00,2013-08-06 18:37:00,
2013-08-06 13:42:00,74.1,63.7,29.73,North,4,7.0,11.0,70,0.00,,OVC048,0.10,VWS V14.00,2013-08-06 18:42:00,
2013-08-06 13:47:00,73.5,63.1,29.73,North,2,5.0,11.0,70,0.00,,OVC048,0.10,VWS V14.00,2013-08-06 18:47:00,
2013-08-06 13:52:00,73.0,63.0,29.73,North,5,5.0,11.0,71,0.00,,OVC048,0.10,VWS V14.00,2013-08-06 18:52:00,
2013-08-06 13:57:00,72.8,62.9,29.73,North,8,3.0,11.0,71,0.00,,OVC048,0.10,VWS V14.00,2013-08-06 18:57:00,
2013-08-06 14:02:00,72.7,63.2,29.73,North,5,5.0,7.0,72,0.00,,BKN070,0.10,VWS V14.00,2013-08-06 19:02:00,
2013-08-06 14:07:00,73.4,63.8,29.72,North,6,3.0,8.0,72,0.00,,BKN070,0.10,VWS V14.00,2013-08-06 19:07:00,
2013-08-06 14:12:00,74.6,65.0,29.72,NNE,19,0.0,5.0,72,0.00,,BKN070,0.10,VWS V14.00,2013-08-06 19:12:00,
2013-08-06 14:17:00,75.5,64.6,29.73,NNE,15,3.0,7.0,69,0.00,,BKN070,0.10,VWS V14.00,2013-08-06 19:17:00,
2013-08-06 14:22:00,75.4,63.7,29.73,North,0,7.0,11.0,67,0.00,,BKN070,0.10,VWS V14.00,2013-08-06 19:22:00,
2013-08-06 14:27:00,75.0,63.7,29.73,North,0,5.0,11.0,68,0.00,,BKN070,0.10,VWS V14.00,2013-08-06 19:27:00,
2013-08-06 14:32:00,74.7,63.9,29.73,North,0,7.0,8.0,69,0.00,,BKN070,0.10,VWS V14.00,2013-08-06 19:32:00,
2013-08-06 14:37:00,74.8,64.0,29.73,North,0,7.0,9.0,69,0.00,,BKN070,0.10,VWS V14.00,2013-08-06 19:37:00,
2013-08-06 14:42:00,75.0,64.6,29.73,North,11,8.0,9.0,70,0.00,,BKN070,0.10,VWS V14.00,2013-08-06 19:42:00,
2013-08-06 14:47:00,74.8,64.0,29.73,North,0,4.0,12.0,69,0.00,,BKN070,0.10,VWS V14.00,2013-08-06 19:47:00,
2013-08-06 14:52:00,74.1,64.1,29.73,North,6,5.0,11.0,71,0.00,,BKN070,0.10,VWS V14.00,2013-08-06 19:52:00,
2013-08-06 14:57:00,73.4,63.4,29.73,North,9,4.0,11.0,71,0.00,,BKN070,0.10,VWS V14.00,2013-08-06 19:57:00,
2013-08-06 15:02:00,73.0,63.8,29.72,NNE,13,4.0,6.0,73,0.00,,BKN055,0.10,VWS V14.00,2013-08-06 20:02:00,
2013-08-06 15:07:00,72.8,64.0,29.73,North,1,8.0,9.0,74,0.00,,BKN055,0.10,VWS V14.00,2013-08-06 20:07:00,
2013-08-06 15:12:00,72.4,64.0,29.73,North,2,0.0,5.0,75,0.00,,BKN055,0.10,VWS V14.00,2013-08-06 20:12:00,
2013-08-06 15:18:00,72.3,63.9,29.73,North,4,0.0,5.0,75,0.00,,BKN055,0.10,VWS V14.00,2013-08-06 20:18:00,
2013-08-06 15:23:00,72.2,64.2,29.73,NNE,18,0.0,7.0,76,0.00,,BKN055,0.10,VWS V14.00,2013-08-06 20:23:00,
2013-08-06 15:28:00,72.1,64.1,29.72,NNE,21,0.0,7.0,76,0.00,,BKN055,0.10,VWS V14.00,2013-08-06 20:28:00,
2013-08-06 15:32:00,72.1,63.8,29.72,NNE,21,0.0,5.0,75,0.00,,BKN055,0.10,VWS V14.00,2013-08-06 20:32:00,
2013-08-06 15:37:00,71.9,62.4,29.72,NNE,21,0.0,5.0,72,0.00,,BKN055,0.10,VWS V14.00,2013-08-06 20:37:00,
2013-08-06 15:42:00,72.0,62.5,29.72,NNE,24,0.0,4.0,72,0.00,,BKN055,0.10,VWS V14.00,2013-08-06 20:42:00,
2013-08-06 15:47:00,71.9,62.4,29.72,NNE,25,0.0,5.0,72,0.00,,BKN055,0.10,VWS V14.00,2013-08-06 20:47:00,
2013-08-06 15:52:00,71.9,62.8,29.73,NNE,26,6.0,6.0,73,0.00,,BKN055,0.10,VWS V14.00,2013-08-06 20:52:00,
2013-08-06 15:57:00,71.8,62.7,29.73,NNE,26,0.0,6.0,73,0.00,,BKN055,0.10,VWS V14.00,2013-08-06 20:57:00,
2013-08-06 16:02:00,71.6,62.1,29.73,NNE,19,5.0,8.0,72,0.00,,OVC043,0.10,VWS V14.00,2013-08-06 21:02:00,
2013-08-06 16:07:00,71.5,62.0,29.73,NNE,13,9.0,11.0,72,0.00,,OVC043,0.10,VWS V14.00,2013-08-06 21:07:00,
2013-08-06 16:12:00,71.4,61.5,29.73,NNE,15,5.0,9.0,71,0.00,,OVC043,0.10,VWS V14.00,2013-08-06 21:12:00,
2013-08-06 16:17:00,71.4,61.5,29.74,North,0,0.0,11.0,71,0.00,,OVC043,0.10,VWS V14.00,2013-08-06 21:17:00,
2013-08-06 16:22:00,71.4,61.5,29.74,North,0,0.0,5.0,71,0.00,,OVC043,0.10,VWS V14.00,2013-08-06 21:22:00,
2013-08-06 16:27:00,71.5,61.2,29.75,North,0,0.0,5.0,70,0.00,,OVC043,0.10,VWS V14.00,2013-08-06 21:27:00,
2013-08-06 16:32:00,71.5,61.2,29.74,North,0,0.0,0.0,70,0.00,,OVC043,0.10,VWS V14.00,2013-08-06 21:32:00,
2013-08-06 16:37:00,71.5,61.2,29.74,North,0,0.0,1.0,70,0.00,,OVC043,0.10,VWS V14.00,2013-08-06 21:37:00,
2013-08-06 16:42:00,71.5,61.6,29.75,North,6,4.0,10.0,71,0.00,,OVC043,0.10,VWS V14.00,2013-08-06 21:42:00,
2013-08-06 16:47:00,71.4,61.5,29.75,North,0,8.0,10.0,71,0.00,,OVC043,0.10,VWS V14.00,2013-08-06 21:47:00,
2013-08-06 16:52:00,71.2,61.7,29.76,North,10,3.0,6.0,72,0.00,,OVC043,0.10,VWS V14.00,2013-08-06 21:52:00,
2013-08-06 16:57:00,70.9,61.8,29.76,North,9,0.0,6.0,73,0.01,,OVC043,0.11,VWS V14.00,2013-08-06 21:57:00,
2013-08-06 17:02:00,70.5,62.6,29.76,North,9,0.0,0.0,76,0.01,,BKN110,0.11,VWS V14.00,2013-08-06 22:02:00,
2013-08-06 17:07:00,70.0,62.1,29.76,North,0,13.0,13.0,76,0.01,,BKN110,0.11,VWS V14.00,2013-08-06 22:07:00,
2013-08-06 17:12:00,69.4,62.2,29.76,North,2,7.0,14.0,78,0.01,,BKN110,0.11,VWS V14.00,2013-08-06 22:12:00,
2013-08-06 17:18:00,68.9,62.1,29.76,North,0,10.0,15.0,79,0.01,,BKN110,0.11,VWS V14.00,2013-08-06 22:18:00,
2013-08-06 17:23:00,68.6,61.8,29.77,North,1,6.0,17.0,79,0.01,,OVC100,0.11,VWS V14.00,2013-08-06 22:23:00,
2013-08-06 17:28:00,68.2,61.5,29.77,North,354,10.0,17.0,79,0.01,,OVC100,0.11,VWS V14.00,2013-08-06 22:28:00,
2013-08-06 17:33:00,68.0,61.2,29.78,North,355,8.0,10.0,79,0.02,,OVC100,0.12,VWS V14.00,2013-08-06 22:33:00,
2013-08-06 17:38:00,67.4,60.7,29.79,NNW,347,6.0,11.0,79,0.03,,OVC100,0.13,VWS V14.00,2013-08-06 22:38:00,
2013-08-06 17:43:00,66.8,60.4,29.79,North,356,3.0,8.0,80,0.03,,OVC100,0.13,VWS V14.00,2013-08-06 22:43:00,
2013-08-06 17:48:00,66.3,60.7,29.80,NNW,334,1.0,8.0,82,0.04,,OVC100,0.14,VWS V14.00,2013-08-06 22:48:00,
2013-08-06 17:53:00,65.8,60.5,29.80,NNW,337,5.0,9.0,83,0.05,,OVC100,0.15,VWS V14.00,2013-08-06 22:53:00,
2013-08-06 17:58:00,65.5,60.5,29.79,NNW,337,0.0,9.0,84,0.07,,OVC100,0.17,VWS V14.00,2013-08-06 22:58:00,
2013-08-06 18:03:00,65.3,60.7,29.77,NNW,337,0.0,0.0,85,0.07,,RA,0.18,VWS V14.00,2013-08-06 23:03:00,
2013-08-06 18:08:00,65.1,60.8,29.74,North,349,1.0,5.0,86,0.10,,RA,0.21,VWS V14.00,2013-08-06 23:08:00,
2013-08-06 18:13:00,64.9,60.9,29.74,NNE,28,4.0,8.0,87,0.11,, +RA,0.22,VWS V14.00,2013-08-06 23:13:00,
2013-08-06 18:18:00,64.6,60.7,29.76,North,10,7.0,9.0,87,0.12,, +RA,0.23,VWS V14.00,2013-08-06 23:18:00,
2013-08-06 18:23:00,64.4,60.5,29.76,NNE,17,6.0,13.0,87,0.12,,-RA,0.23,VWS V14.00,2013-08-06 23:23:00,
2013-08-06 18:28:00,64.3,60.7,29.77,North,0,6.0,13.0,88,0.12,,-RA,0.23,VWS V14.00,2013-08-06 23:28:00,
2013-08-06 18:33:00,64.2,60.6,29.78,North,0,4.0,8.0,88,0.12,,-RA,0.23,VWS V14.00,2013-08-06 23:33:00,
2013-08-06 18:38:00,64.2,60.6,29.78,North,359,0.0,8.0,88,0.12,,-RA,0.23,VWS V14.00,2013-08-06 23:38:00,
2013-08-06 18:43:00,64.1,60.8,29.78,North,357,0.0,11.0,89,0.10,,-RA,0.23,VWS V14.00,2013-08-06 23:43:00,
2013-08-06 18:48:00,64.1,60.8,29.79,North,355,5.0,11.0,89,0.10,,-RA,0.23,VWS V14.00,2013-08-06 23:48:00,
2013-08-06 18:53:00,64.1,60.8,29.78,North,357,6.0,8.0,89,0.09,,-RA,0.23,VWS V14.00,2013-08-06 23:53:00,
2013-08-06 18:58:00,64.2,60.9,29.78,North,0,4.0,9.0,89,0.09,,-RA,0.23,VWS V14.00,2013-08-06 23:58:00,
2013-08-06 19:03:00,64.2,61.2,29.78,North,359,8.0,9.0,90,0.06,,FEW021,0.23,VWS V14.00,2013-08-07 00:03:00,
2013-08-06 19:08:00,64.2,60.9,29.79,NNW,348,2.0,10.0,89,0.06,,FEW021,0.23,VWS V14.00,2013-08-07 00:08:00,
2013-08-06 19:13:00,64.4,61.1,29.78,North,0,4.0,8.0,89,0.02,,FEW021,0.23,VWS V14.00,2013-08-07 00:13:00,
2013-08-06 19:18:00,64.6,61.6,29.79,North,0,0.0,9.0,90,0.02,,FEW021,0.23,VWS V14.00,2013-08-07 00:18:00,
2013-08-06 19:23:00,64.9,61.6,29.79,North,0,6.0,11.0,89,0.00,,FEW021,0.23,VWS V14.00,2013-08-07 00:23:00,
2013-08-06 19:28:00,65.3,62.0,29.79,North,0,7.0,13.0,89,0.00,,FEW021,0.23,VWS V14.00,2013-08-07 00:28:00,
2013-08-06 19:33:00,65.5,61.9,29.79,North,3,5.0,14.0,88,0.00,,FEW021,0.23,VWS V14.00,2013-08-07 00:33:00,
2013-08-06 19:38:00,65.3,61.3,29.79,North,359,0.0,14.0,87,0.00,,FEW021,0.23,VWS V14.00,2013-08-07 00:38:00,
2013-08-06 19:43:00,65.1,61.1,29.80,North,355,7.0,14.0,87,0.00,,FEW021,0.23,VWS V14.00,2013-08-07 00:43:00,
2013-08-06 19:48:00,64.9,60.6,29.80,North,359,6.0,14.0,86,0.00,,FEW021,0.23,VWS V14.00,2013-08-07 00:48:00,
2013-08-06 19:53:00,64.6,60.3,29.80,North,358,2.0,11.0,86,0.00,,FEW021,0.23,VWS V14.00,2013-08-07 00:53:00,
2013-08-06 19:58:00,64.3,60.0,29.80,North,355,0.0,13.0,86,0.00,,FEW021,0.23,VWS V14.00,2013-08-07 00:58:00,
2013-08-06 20:03:00,63.9,59.6,29.80,North,351,3.0,11.0,86,0.00,,SCT050,0.23,VWS V14.00,2013-08-07 01:03:00,
2013-08-06 20:08:00,63.8,59.5,29.80,North,0,0.0,11.0,86,0.00,,SCT050,0.23,VWS V14.00,2013-08-07 01:08:00,
2013-08-06 20:13:00,63.6,59.3,29.81,NNW,348,6.0,10.0,86,0.00,,SCT050,0.23,VWS V14.00,2013-08-07 01:13:00,
2013-08-06 20:18:00,63.4,58.8,29.81,North,357,0.0,11.0,85,0.00,,SCT050,0.23,VWS V14.00,2013-08-07 01:18:00,
2013-08-06 20:23:00,63.2,58.6,29.82,NNW,337,3.0,7.0,85,0.00,,SCT050,0.23,VWS V14.00,2013-08-07 01:23:00,
2013-08-06 20:28:00,63.1,58.5,29.82,North,355,4.0,11.0,85,0.00,,SCT050,0.23,VWS V14.00,2013-08-07 01:28:00,
2013-08-06 20:33:00,63.0,58.8,29.83,North,352,0.0,10.0,86,0.00,,SCT050,0.23,VWS V14.00,2013-08-07 01:33:00,
2013-08-06 20:38:00,62.9,58.7,29.83,NNW,341,4.0,10.0,86,0.00,,SCT050,0.23,VWS V14.00,2013-08-07 01:38:00,
2013-08-06 20:43:00,62.8,58.6,29.83,North,355,6.0,12.0,86,0.00,,SCT050,0.23,VWS V14.00,2013-08-07 01:43:00,
2013-08-06 20:48:00,62.7,58.5,29.83,NNW,336,5.0,12.0,86,0.00,,SCT050,0.23,VWS V14.00,2013-08-07 01:48:00,
2013-08-06 20:53:00,62.5,58.3,29.84,NNW,339,1.0,11.0,86,0.00,,SCT050,0.23,VWS V14.00,2013-08-07 01:53:00,
2013-08-06 20:58:00,62.4,58.5,29.84,NNW,333,4.0,11.0,87,0.00,,SCT050,0.23,VWS V14.00,2013-08-07 01:58:00,
2013-08-06 21:03:00,62.3,58.4,29.85,North,352,4.0,10.0,87,0.00,,BKN044,0.23,VWS V14.00,2013-08-07 02:03:00,
2013-08-06 21:08:00,62.2,58.3,29.85,NNW,346,9.0,13.0,87,0.00,,BKN044,0.23,VWS V14.00,2013-08-07 02:08:00,
2013-08-06 21:13:00,62.1,58.2,29.85,North,359,0.0,11.0,87,0.00,,BKN044,0.23,VWS V14.00,2013-08-07 02:13:00,
2013-08-06 21:18:00,62.1,58.2,29.85,North,0,5.0,11.0,87,0.00,,BKN044,0.23,VWS V14.00,2013-08-07 02:18:00,
2013-08-06 21:23:00,62.0,57.8,29.86,NNW,347,2.0,11.0,86,0.00,,BKN044,0.23,VWS V14.00,2013-08-07 02:23:00,
2013-08-06 21:28:00,61.9,57.7,29.86,NW,326,4.0,11.0,86,0.00,,BKN044,0.23,VWS V14.00,2013-08-07 02:28:00,
2013-08-06 21:33:00,61.8,57.6,29.86,NNW,327,0.0,8.0,86,0.00,,BKN044,0.23,VWS V14.00,2013-08-07 02:33:00,
2013-08-06 21:38:00,61.6,57.7,29.86,NNW,334,3.0,8.0,87,0.00,,BKN044,0.23,VWS V14.00,2013-08-07 02:38:00,
2013-08-06 21:44:00,61.3,57.1,29.87,NNW,343,3.0,9.0,86,0.00,,BKN044,0.23,VWS V14.00,2013-08-07 02:44:00,
2013-08-06 21:48:00,61.2,57.0,29.87,NNW,343,5.0,9.0,86,0.00,,BKN044,0.23,VWS V14.00,2013-08-07 02:48:00,
2013-08-06 21:54:00,61.1,57.2,29.86,NNW,346,0.0,6.0,87,0.00,,BKN044,0.23,VWS V14.00,2013-08-07 02:54:00,
2013-08-06 21:58:00,60.9,56.7,29.87,NNW,329,4.0,8.0,86,0.00,,BKN044,0.23,VWS V14.00,2013-08-07 02:58:00,
2013-08-06 22:04:00,60.8,56.6,29.87,NNW,327,2.0,7.0,86,0.00,,OVC031,0.23,VWS V14.00,2013-08-07 03:04:00,
2013-08-06 22:09:00,60.8,56.6,29.87,NNW,333,4.0,9.0,86,0.00,,OVC031,0.23,VWS V14.00,2013-08-07 03:09:00,
2013-08-06 22:14:00,60.6,56.4,29.87,NNW,331,0.0,7.0,86,0.00,,OVC031,0.23,VWS V14.00,2013-08-07 03:14:00,
2013-08-06 22:19:00,60.5,56.0,29.88,NNW,336,6.0,7.0,85,0.00,,OVC031,0.23,VWS V14.00,2013-08-07 03:19:00,
2013-08-06 22:24:00,60.4,55.9,29.88,NNW,339,4.0,6.0,85,0.00,,OVC031,0.23,VWS V14.00,2013-08-07 03:24:00,
2013-08-06 22:29:00,60.3,55.8,29.88,NNW,338,2.0,8.0,85,0.00,,OVC031,0.23,VWS V14.00,2013-08-07 03:29:00,
2013-08-06 22:34:00,60.2,55.7,29.88,NNW,331,4.0,7.0,85,0.00,,OVC031,0.23,VWS V14.00,2013-08-07 03:34:00,
2013-08-06 22:39:00,60.1,55.6,29.88,NNW,335,3.0,9.0,85,0.00,,OVC031,0.23,VWS V14.00,2013-08-07 03:39:00,
2013-08-06 22:44:00,59.9,55.1,29.88,NNW,333,0.0,8.0,84,0.00,,OVC031,0.23,VWS V14.00,2013-08-07 03:44:00,
2013-08-06 22:49:00,59.8,55.0,29.88,NNW,336,3.0,8.0,84,0.00,,OVC031,0.23,VWS V14.00,2013-08-07 03:49:00,
2013-08-06 22:54:00,59.7,54.9,29.88,NNW,337,0.0,6.0,84,0.00,,OVC031,0.23,VWS V14.00,2013-08-07 03:54:00,
2013-08-06 22:59:00,59.5,54.3,29.88,NNW,334,0.0,6.0,83,0.00,,OVC031,0.23,VWS V14.00,2013-08-07 03:59:00,
2013-08-06 23:01:00,59.4,54.2,29.88,NNW,333,0.0,2.0,83,0.00,,FEW023,0.23,VWS V14.00,2013-08-07 04:01:00,
2013-08-06 23:06:00,59.1,54.0,29.89,NNW,329,0.0,7.0,83,0.00,,FEW023,0.23,VWS V14.00,2013-08-07 04:06:00,
2013-08-06 23:11:00,59.0,53.8,29.89,NNW,329,0.0,1.0,83,0.00,,FEW023,0.23,VWS V14.00,2013-08-07 04:11:00,
2013-08-06 23:16:00,58.8,53.7,29.89,NNW,331,0.0,6.0,83,0.00,,FEW023,0.23,VWS V14.00,2013-08-07 04:16:00,
2013-08-06 23:21:00,58.5,53.0,29.89,NNW,331,0.0,0.0,82,0.00,,FEW023,0.23,VWS V14.00,2013-08-07 04:21:00,
2013-08-06 23:26:00,58.3,52.8,29.89,NNW,330,0.0,5.0,82,0.00,,FEW023,0.23,VWS V14.00,2013-08-07 04:26:00,
2013-08-06 23:31:00,58.0,52.5,29.89,NNW,330,0.0,0.0,82,0.00,,FEW023,0.23,VWS V14.00,2013-08-07 04:31:00,
2013-08-06 23:36:00,57.8,52.3,29.89,NNW,330,0.0,0.0,82,0.00,,FEW023,0.23,VWS V14.00,2013-08-07 04:36:00,
2013-08-06 23:41:00,57.6,52.2,29.89,NNW,330,0.0,0.0,82,0.00,,FEW023,0.23,VWS V14.00,2013-08-07 04:41:00,
2013-08-06 23:46:00,57.3,51.9,29.89,NNW,330,0.0,0.0,82,0.00,,FEW023,0.23,VWS V14.00,2013-08-07 04:46:00,
2013-08-06 23:51:00,57.1,51.7,29.89,NNW,330,0.0,0.0,82,0.00,,FEW023,0.23,VWS V14.00,2013-08-07 04:51:00,
2013-08-06 23:56:00,56.9,51.5,29.89,NNW,330,0.0,0.0,82,0.00,,FEW023,0.23,VWS V14.00,2013-08-07 04:56:00,